Time,TemperatureF,DewpointF,PressureIn,WindDirection,WindDirectionDegrees,WindSpeedMPH,WindSpeedGustMPH,Humidity,HourlyPrecipIn,Conditions,Clouds,dailyrainin,SoftwareType,DateUTC
2013-03-14 10:26:00,35.6,18.3,29.68,SW,225,4.2,-999.0,49,-99.99,,,0.00,Acu-Link.com,2013-03-14 14:26:00,
2013-03-14 10:42:00,36.1,18.8,29.68,West,270,4.7,-999.0,49,-99.99,,,0.00,Acu-Link.com,2013-03-14 14:42:00,
2013-03-14 10:57:00,35.4,17.2,29.68,SW,225,8.3,-999.0,47,-99.99,,,0.00,Acu-Link.com,2013-03-14 14:57:00,
2013-03-14 11:12:00,36.0,17.3,29.68,NW,315,8.3,-999.0,46,-99.99,,,0.00,Acu-Link.com,2013-03-14 15:12:00,
2013-03-14 11:28:00,35.8,17.1,29.67,West,270,4.7,-999.0,46,-99.99,,,0.00,Acu-Link.com,2013-03-14 15:28:00,
2013-03-14 11:44:00,36.0,16.2,29.67,NNE,22,4.7,-999.0,44,-99.99,,,0.00,Acu-Link.com,2013-03-14 15:44:00,
2013-03-14 11:59:00,38.7,16.5,29.66,NNW,337,4.2,-999.0,40,-99.99,,,0.00,Acu-Link.com,2013-03-14 15:59:00,
2013-03-14 12:15:00,38.5,17.4,29.65,ENE,67,3.7,-999.0,42,-99.99,,,0.00,Acu-Link.com,2013-03-14 16:15:00,
2013-03-14 12:30:00,38.1,17.1,29.65,NNW,337,4.7,-999.0,42,-99.99,,,0.00,Acu-Link.com,2013-03-14 16:30:00,
2013-03-14 12:46:00,37.4,15.9,29.64,NE,45,7.3,-999.0,41,-99.99,,,0.00,Acu-Link.com,2013-03-14 16:46:00,
2013-03-14 13:01:00,37.6,15.5,29.64,ENE,67,4.7,-999.0,40,-99.99,,,0.00,Acu-Link.com,2013-03-14 17:01:00,
2013-03-14 13:17:00,37.2,14.6,29.64,WSW,247,10.4,-999.0,39,-99.99,,,0.00,Acu-Link.com,2013-03-14 17:17:00,
2013-03-14 13:32:00,37.4,15.3,29.63,SW,225,8.9,-999.0,40,-99.99,,,0.00,Acu-Link.com,2013-03-14 17:32:00,
2013-03-14 13:48:00,36.5,15.1,29.63,NE,45,3.7,-999.0,41,-99.99,,,0.00,Acu-Link.com,2013-03-14 17:48:00,
2013-03-14 14:03:00,38.5,15.7,29.62,NW,315,6.3,-999.0,39,-99.99,,,0.00,Acu-Link.com,2013-03-14 18:03:00,
2013-03-14 14:18:00,37.2,16.2,29.62,West,270,5.3,-999.0,42,-99.99,,,0.00,Acu-Link.com,2013-03-14 18:18:00,
2013-03-14 14:33:00,36.9,15.4,29.62,North,0,7.3,-999.0,41,-99.99,,,0.00,Acu-Link.com,2013-03-14 18:33:00,
2013-03-14 14:49:00,35.4,14.6,29.62,North,0,6.3,-999.0,42,-99.99,,,0.00,Acu-Link.com,2013-03-14 18:49:00,
2013-03-14 15:05:00,36.0,15.7,29.63,WNW,292,11.9,-999.0,43,-99.99,,,0.00,Acu-Link.com,2013-03-14 19:05:00,
2013-03-14 15:41:00,36.1,14.7,29.62,NE,45,4.2,-999.0,41,-99.99,,,0.00,Acu-Link.com,2013-03-14 19:41:00,
2013-03-14 15:57:00,36.0,14.6,29.62,North,0,5.8,-999.0,41,-99.99,,,0.00,Acu-Link.com,2013-03-14 19:57:00,
2013-03-14 16:12:00,36.0,15.7,29.62,WNW,292,5.8,-999.0,43,-99.99,,,0.00,Acu-Link.com,2013-03-14 20:12:00,
2013-03-14 16:28:00,35.6,15.3,29.63,North,0,7.3,-999.0,43,-99.99,,,0.00,Acu-Link.com,2013-03-14 20:28:00,
2013-03-14 16:43:00,36.0,15.7,29.62,SE,135,10.4,-999.0,43,-99.99,,,0.00,Acu-Link.com,2013-03-14 20:43:00,
2013-03-14 17:00:00,36.5,15.1,29.63,WNW,292,10.9,-999.0,41,-99.99,,,0.00,Acu-Link.com,2013-03-14 21:00:00,
2013-03-14 19:05:00,29.7,13.4,29.67,WSW,247,6.3,-999.0,50,-99.99,,,0.00,Acu-Link.com,2013-03-14 23:05:00,
2013-03-14 19:20:00,28.6,12.8,29.67,East,90,5.8,-999.0,51,-99.99,,,0.00,Acu-Link.com,2013-03-14 23:20:00,
2013-03-14 19:35:00,28.2,12.9,29.68,ESE,112,3.2,-999.0,52,-99.99,,,0.00,Acu-Link.com,2013-03-14 23:35:00,
2013-03-14 19:51:00,28.0,12.2,29.69,NNE,22,4.7,-999.0,51,-99.99,,,0.00,Acu-Link.com,2013-03-14 23:51:00,
2013-03-14 20:06:00,27.9,11.7,29.69,NNE,22,4.7,-999.0,50,-99.99,,,0.00,Acu-Link.com,2013-03-15 00:06:00,
2013-03-14 20:22:00,27.7,12.0,29.70,ENE,67,6.3,-999.0,51,-99.99,,,0.00,Acu-Link.com,2013-03-15 00:22:00,
2013-03-14 20:37:00,27.3,11.6,29.71,NNE,22,8.3,-999.0,51,-99.99,,,0.00,Acu-Link.com,2013-03-15 00:37:00,
2013-03-14 20:52:00,26.8,10.2,29.71,SE,135,6.8,-999.0,49,-99.99,,,0.00,Acu-Link.com,2013-03-15 00:52:00,
2013-03-14 21:08:00,26.2,9.7,29.71,WNW,292,8.3,-999.0,49,-99.99,,,0.00,Acu-Link.com,2013-03-15 01:08:00,
2013-03-14 21:24:00,25.7,9.2,29.73,NNE,22,6.3,-999.0,49,-99.99,,,0.00,Acu-Link.com,2013-03-15 01:24:00,
2013-03-14 21:39:00,25.5,9.9,29.73,NNE,22,5.8,-999.0,51,-99.99,,,0.00,Acu-Link.com,2013-03-15 01:39:00,
2013-03-14 21:55:00,25.2,9.6,29.74,West,270,6.3,-999.0,51,-99.99,,,0.00,Acu-Link.com,2013-03-15 01:55:00,
2013-03-14 22:10:00,25.0,10.3,29.74,North,0,4.2,-999.0,53,-99.99,,,0.00,Acu-Link.com,2013-03-15 02:10:00,
2013-03-14 22:26:00,24.6,10.4,29.74,North,0,5.3,-999.0,54,-99.99,,,0.00,Acu-Link.com,2013-03-15 02:26:00,
2013-03-14 22:41:00,24.3,10.1,29.74,NNW,337,2.2,-999.0,54,-99.99,,,0.00,Acu-Link.com,2013-03-15 02:41:00,
2013-03-14 22:57:00,24.1,10.7,29.74,NNW,337,4.2,-999.0,56,-99.99,,,0.00,Acu-Link.com,2013-03-15 02:57:00,
2013-03-14 23:21:00,23.5,10.5,29.74,NNE,22,7.3,-999.0,57,-99.99,,,0.00,Acu-Link.com,2013-03-15 03:21:00,
2013-03-14 23:36:00,23.4,9.6,29.74,NNE,22,6.8,-999.0,55,-99.99,,,0.00,Acu-Link.com,2013-03-15 03:36:00,